Location: Apeadero de Los Molinos-Guadarrama
(40.7091°N, 4.0689°W)
Time: 11:51:00
(UTC+00:00)

Cosmos 1943 Rocket - Pass Details

Date: 14 May 2021
Orbit: 814 x 842 km, 71.0° (Epoch: 18 June)

Event Time Altitude Azimuth Distance (km) Brightness Sun altitude
Exits shadow 21:15:07 23° 100° (E) 1,719 3.4 -17.6°
Drops below altitude 10° 21:19:19 10° 51° (NE) 2,444 4.6 -18.1°
Sets 21:22:13 0° 38° (NE) 3,377 5.5 -18.5°
